Home   Weather   Phnom Penh   Past weeks

Flag for Cambodia Past Weather in Phnom Penh, Cambodia — Yesterday and Last 2 Weeks

Now
86 °F

Scattered clouds.


Feels Like: 95 °F
Forecast: 78 / 83 °F
Wind: 9 mph from West

Location: Phnom-Penh / Pochentong

Current Time: Jul 24, 2017 at 9:59:05 am

Latest Report: Jul 24, 2017 at 9:30 am


Visibility: N/A

Pressure: 29.71 "Hg

Humidity: 70%

Dew Point: 75 °F

Location of Phnom PenhLocation

Past Weather in Phnom Penh — Graph

°F

Phnom Penh Temperature Yesterday

Maximum temperature yesterday: 93 °F (at 2:00 pm)
Minimum temperature yesterday: 81 °F (at 12:00 am)
Average temperature yesterday: 86 °F

High & Low Weather Summary for the Past Weeks

 TemperatureHumidityPressure
High97 °F (Jul 10, 2:30 pm)100% (Jul 10, 6:00 am)29.83 "Hg (Jul 10, 6:00 am)
Low75 °F (Jul 11, 1:30 am)49% (Jul 10, 5:00 pm)29.56 "Hg (Jul 16, 4:00 pm)
Average84 °F78%29.73 "Hg
* Reported Jul 9 9:00 am — Jul 24 9:00 am, Phnom Penh. Weather by CustomWeather, © 2017

Note: Actual official high and low records may vary slightly from our data, if they occured in-between our weather recording intervals... More about our weather records

Advertising

Phnom Penh Weather History for the Previous 24 Hours

Scroll right to see more
 ConditionsComfort  
Time TempWeatherWind HumidityBarometerVisibility
9:00 am
Mon, Jul 24
86 °FScattered clouds.9 mph70%29.71 "HgN/A
8:30 am86 °FScattered clouds.8 mph70%29.71 "HgN/A
7:00 am81 °FScattered clouds.6 mph84%29.71 "HgN/A
6:30 am81 °FScattered clouds.6 mph84%29.71 "HgN/A
2:30 am81 °FPassing clouds.5 mph89%29.71 "HgN/A
2:00 am81 °FPassing clouds.5 mph84%29.71 "HgN/A
1:00 am82 °FPassing clouds.3 mph79%29.74 "HgN/A
12:30 am82 °FPassing clouds.6 mph79%29.74 "HgN/A
12:00 am82 °FPassing clouds.6 mph79%29.74 "HgN/A
11:30 pm
Sun, Jul 23
82 °FPassing clouds.5 mph79%29.74 "HgN/A
10:30 pm84 °FPassing clouds.N/A74%29.74 "HgN/A
9:30 pm84 °FPassing clouds.2 mph74%29.74 "HgN/A
9:00 pm84 °FPassing clouds.3 mph74%29.74 "HgN/A
8:30 pm84 °FPassing clouds.8 mph74%29.71 "HgN/A
8:00 pm86 °FPassing clouds.8 mph70%29.71 "HgN/A
7:30 pm86 °FPassing clouds.8 mph66%29.71 "HgN/A
6:30 pm88 °FPassing clouds.8 mph62%29.68 "HgN/A
5:30 pm90 °FScattered clouds.13 mph55%29.65 "HgN/A
5:00 pm91 °FScattered clouds.10 mph52%29.65 "HgN/A
4:30 pm90 °FScattered clouds.12 mph59%29.65 "HgN/A
3:30 pm90 °FScattered clouds.3 mph63%29.68 "HgN/A
3:00 pm88 °FScattered clouds.14 mph62%29.68 "HgN/A
2:30 pm88 °FRain. Scattered clouds.14 mph66%29.68 "Hg6 mi
2:00 pm93 °FScattered clouds.7 mph56%29.68 "HgN/A
1:30 pm91 °FScattered clouds.7 mph59%29.71 "HgN/A
12:30 pm90 °FScattered clouds.6 mph63%29.74 "HgN/A
12:00 pm91 °FScattered clouds.8 mph63%29.74 "HgN/A
11:30 am90 °FScattered clouds.9 mph63%29.77 "HgN/A
11:00 am90 °FScattered clouds.7 mph67%29.77 "HgN/A
10:30 am86 °FScattered clouds.5 mph70%29.77 "HgN/A
9:30 am86 °FScattered clouds.7 mph70%29.77 "HgN/A
Weather by CustomWeather, © 2017

See weather overviewHow to use our weather pages